Weather in Gornozavodskoe

Russia / Stavropol Krai     44°01′34″N   43°56′34″E
temp.,
°C
wind,
m/s
gust,
m/s
humid.,
%
clouds,
%
prec.,
mm/h
press.,
hPa
HPBL,
m
18 may, tue
tue1800:00+17wnw8159097 0.5 1008545
03:00+15wnw71493100 2.4 1009598
06:00+15nw71487100 0.1 1010568
09:00+16nw5884100 0.1 1011598
12:00+21nnw446028 0.0 10121169
15:00+23n335236 0.0 10111592
18:00+21nne23637 0.0 1011201
21:00+16ene33760 0.0 101228
19 may, wed
wed1900:00+14se22800 0.0 101117
03:00+13se22860 0.0 101025
06:00+14ese388384 0.0 1009205
09:00+19se246740 0.0 1010538
12:00+23nw325464 0.1 10101549
15:00+14nnw91580100 0.5 1014632
18:00+15nnw358446 2.0 1016314
21:00+14ssw2288100 2.0 101750
20 may, thu
thu2000:00+13s23910 0.0 101729
03:00+12sse2290100 0.0 101715
06:00+13se24885 0.0 1018133
09:00+19se67635 0.0 10171026
12:00+22se67475 0.0 10161393
15:00+23ese674494 0.0 10151386
18:00+22ese36560 0.0 1015248
21:00+16ese412685 0.0 1016254
21 may, fri
fri2100:00+13ese49650 0.0 1015140
03:00+11ese36750 0.0 101489
06:00+13ese25780 0.0 1014136
09:00+20ese45590 0.0 1013486
12:00+26e56490 0.0 1012882
15:00+29ese67410 0.0 10111223
18:00+24e611555 0.0 1011457
21:00+18e511650 0.0 1012243
22 may, sat
sat2200:00+14e367611 0.0 101298
03:00+13ese338021 0.0 101155
06:00+15e25774 0.0 1011139
09:00+22e45615 0.0 1010482
12:00+28e574790 0.0 1009900
15:00+31ese6737100 0.0 10071348
18:00+26e5115234 0.0 1007327
21:00+20ne365899 0.0 100889